Location: Blandford
(50.8667°N, 2.1667°W)
Time: 01:28:55
(UTC+00:00)

STARLINK-1143 - Pass Details

Date: 09 April 2020
Orbit: 549 x 550 km, 53.0° (Epoch: 30 May)

Event Time Altitude Azimuth Distance (km) Brightness Sun altitude
Rises 19:55:51 0° 288° (WNW) 2,729 9.3 -9.8°
Reaches altitude 10° 19:58:05 10° 288° (WNW) 1,834 7.9 -10.1°
Maximum altitude 20:02:16 87° 198° (SSW) 559 3.6 -10.7°
Enters shadow 20:05:30 16° 112° (ESE) 1,465 5.1 -11.2°
